CW4610 Weather Reports


Display with metric or nautical units.
time (UTC)temp
F
wind
direction
speed
MPH
gust
MPH
rain 1hr
in
rain 24hr
in
rain mn
in
humidity
%
barometer
mb
20260508005018 66 180 14.0 20.0 0.00 0.00 0.00 61 1015.0
20260508004018 66 180 13.0 21.0 0.00 0.00 0.00 61 1015.0
20260508003038 66 180 14.0 20.0 0.00 0.00 0.00 61 1015.1
20260508002018 65 180 12.0 19.0 0.00 0.00 0.00 61 1015.1
20260508001041 66 180 11.0 17.0 0.00 0.00 0.00 60 1015.0
20260508000019 67 180 14.0 22.0 0.00 0.00 0.00 58 1015.1
20260507235018 68 180 12.0 19.0 0.00 0.00 0.00 57 1015.1
20260507234038 69 180 12.0 19.0 0.00 0.00 0.00 55 1015.1
20260507233018 69 180 9.0 17.0 0.00 0.00 0.00 54 1015.4
20260507232018 70 180 9.0 13.0 0.00 0.00 0.00 55 1015.5
20260507231019 70 180 9.0 15.0 0.00 0.00 0.00 53 1015.5
20260507230022 71 180 9.0 15.0 0.00 0.00 0.00 52 1015.5
20260507225017 72 180 11.0 18.0 0.00 0.00 0.00 51 1015.5
20260507224018 73 180 7.0 13.0 0.00 0.00 0.00 48 1015.6
20260507223018 73 180 10.0 17.0 0.00 0.00 0.00 48 1015.7
20260507222058 73 225 10.0 16.0 0.00 0.00 0.00 47 1015.7
20260507221017 73 270 3.0 7.0 0.00 0.00 0.00 49 1015.8
20260507220038 72 0 4.0 8.0 0.00 0.00 0.00 47 1015.9
20260507215018 72 0 5.0 10.0 0.00 0.00 0.00 45 1016.0
20260507214038 72 0 6.0 10.0 0.00 0.00 0.00 48 1016.1
20260507213017 71 23 7.0 12.0 0.00 0.00 0.00 47 1016.2
20260507212017 71 0 6.0 11.0 0.00 0.00 0.00 47 1016.2
20260507211047 71 23 5.0 13.0 0.00 0.00 0.00 46 1016.4
20260507210037 71 0 7.0 12.0 0.00 0.00 0.00 45 1016.5
20260507205019 72 338 7.0 12.0 0.00 0.00 0.00 44 1016.6
20260507204017 73 23 5.0 10.0 0.00 0.00 0.00 43 1016.7
20260507203018 74 293 4.0 6.0 0.00 0.00 0.00 44 1016.9
20260507202018 74 225 3.0 7.0 0.00 0.00 0.00 44 1017.0
20260507201018 73 225 3.0 8.0 0.00 0.00 0.00 45 1017.1
20260507200046 72 270 2.0 5.0 0.00 0.00 0.00 45 1017.2
20260507195017 72 158 2.0 5.0 0.00 0.00 0.00 45 1017.2
20260507194017 72 225 2.0 4.0 0.00 0.00 0.00 46 1017.4
20260507193018 72 225 2.0 6.0 0.00 0.00 0.00 47 1017.6
20260507192017 70 158 3.0 5.0 0.00 0.00 0.00 50 1017.6
20260507191025 69 270 2.0 5.0 0.00 0.00 0.00 50 1017.7
20260507190018 69 0 3.0 6.0 0.00 0.00 0.00 50 1017.9
20260507185019 69 45 2.0 5.0 0.00 0.00 0.00 51 1018.0
20260507184017 68 0 3.0 7.0 0.00 0.00 0.00 53 1018.2
20260507183026 67 0 3.0 8.0 0.00 0.00 0.00 53 1018.2
20260507182040 66 45 4.0 8.0 0.00 0.00 0.00 55 1018.2
20260507181019 67 0 3.0 6.0 0.00 0.00 0.00 53 1018.6
20260507180020 67 203 2.0 5.0 0.00 0.00 0.00 54 1018.7
20260507175020 66 135 2.0 6.0 0.00 0.00 0.00 55 1018.7
20260507174059 65 203 3.0 6.0 0.00 0.00 0.00 58 1018.9
20260507173036 65 293 2.0 3.0 0.00 0.00 0.00 57 1019.1
20260507172040 65 315 3.0 5.0 0.00 0.00 0.00 58 1019.2
20260507171020 65 248 2.0 5.0 0.00 0.00 0.00 59 1019.2
20260507170046 64 315 2.0 4.0 0.00 0.00 0.00 60 1019.3
20260507165019 62 23 1.0 3.0 0.00 0.00 0.00 62 1019.3
20260507164119 62 338 2.0 4.0 0.00 0.00 0.00 61 1019.4
20260507163019 62 338 1.0 3.0 0.00 0.00 0.00 63 1019.6
20260507162020 61 180 0.0 2.0 0.00 0.00 0.00 69 1019.6
20260507161020 61 225 1.0 3.0 0.00 0.00 0.00 69 1019.6
20260507160018 59 225 2.0 4.0 0.00 0.00 0.00 72 1019.7
20260507155019 58 293 1.0 4.0 0.00 0.00 0.00 70 1019.7
20260507154059 58 0 1.0 3.0 0.00 0.00 0.00 67 1019.7
20260507153021 57 315 1.0 3.0 0.00 0.00 0.00 68 1019.8
20260507152039 56 68 2.0 6.0 0.00 0.00 0.00 71 1019.8
20260507151019 55 23 2.0 5.0 0.00 0.00 0.00 73 1019.8
20260507150054 54 45 1.0 3.0 0.00 0.00 0.00 76 1019.7
20260507145019 52 68 1.0 4.0 0.00 0.00 0.00 79 1019.7
20260507144040 52 90 2.0 5.0 0.00 0.00 0.00 83 1019.7
20260507143022 51 90 0.0 2.0 0.00 0.00 0.00 86 1019.7
20260507142051 51 90 1.0 2.0 0.00 0.00 0.00 88 1019.7
20260507141018 50 90 1.0 2.0 0.00 0.00 0.00 89 1019.7
20260507140122 50 90 2.0 3.0 0.00 0.00 0.00 90 1019.7
20260507135043 50 90 0.0 2.0 0.00 0.00 0.00 90 1019.7
20260507134051 50 90 1.0 3.0 0.00 0.00 0.00 90 1019.7
20260507133037 50 68 1.0 3.0 0.00 0.00 0.00 90 1019.6
20260507132019 50 90 2.0 3.0 0.00 0.00 0.00 90 1019.5
20260507131018 51 90 3.0 5.0 0.00 0.00 0.00 89 1019.4
20260507130623 51 90 2.0 3.0 0.00 0.00 0.00 88
20260507081518 55 45 2.0 4.0 0.00 0.00 0.00 83 1019.4
20260507080518 55 23 3.0 5.0 0.00 0.00 0.00 82 1019.4
20260507075518 55 23 1.0 3.0 0.00 0.00 0.00 82 1019.2
20260507074519 55 45 1.0 3.0 0.00 0.00 0.00 82 1019.2
20260507073537 55 315 3.0 4.0 0.00 0.00 0.00 83 1019.2
20260507072518 55 293 0.0 3.0 0.00 0.00 0.00 83 1019.2
20260507071520 55 338 0.0 2.0 0.00 0.00 0.00 82 1019.2
20260507070519 55 68 3.0 3.0 0.00 0.00 0.00 82 1019.2
20260507065519 55 23 4.0 5.0 0.00 0.00 0.00 82 1019.1
20260507064519 56 0 4.0 5.0 0.00 0.00 0.00 82 1019.2
20260507063520 56 338 1.0 3.0 0.00 0.00 0.00 81 1019.2
20260507062521 56 45 1.0 3.0 0.00 0.00 0.00 80 1019.1
20260507061519 56 23 1.0 3.0 0.00 0.00 0.00 81 1019.2
20260507060700 56 45 2.0 5.0 0.00 0.00 0.00 82 1019.2
20260507055520 56 180 1.0 3.0 0.00 0.00 0.00 82 1019.1
20260507054518 56 180 5.0 8.0 0.00 0.00 0.00 82 1019.0
20260507053519 56 180 4.0 11.0 0.00 0.00 0.00 81 1019.0
20260507052549 56 45 1.0 3.0 0.00 0.00 0.00 80 1018.9
20260507051519 56 338 2.0 4.0 0.00 0.00 0.00 80 1019.0
20260507050523 56 23 1.0 2.0 0.00 0.00 0.00 80 1019.1
20260507045626 56 23 2.0 4.0 0.00 0.00 0.00 80 1019.0
20260507044521 56 0 3.0 6.0 0.00 0.00 0.00 80 1018.8
20260507043531 56 0 2.0 5.0 0.00 0.00 0.00 80 1018.8
20260507042519 57 180 1.0 3.0 0.00 0.00 0.00 80 1018.8
20260507041534 57 23 3.0 6.0 0.00 0.00 0.00 79 1018.7
20260507040559 57 45 1.0 3.0 0.00 0.00 0.00 79 1018.7
20260507035540 57 45 2.0 3.0 0.00 0.00 0.00 78 1018.6
20260507034519 58 68 2.0 5.0 0.00 0.00 0.00 77 1018.4
20260507033518 58 338 4.0 9.0 0.00 0.00 0.00 78 1018.4
20260507032518 59 0 2.0 4.0 0.00 0.00 0.00 76 1018.2
20260507031519 59 315 3.0 6.0 0.00 0.00 0.00 75 1018.1
20260507030519 60 45 4.0 7.0 0.00 0.00 0.00 74 1018.1
20260507025518 60 180 3.0 7.0 0.00 0.00 0.00 73 1018.1
20260507024518 61 180 5.0 12.0 0.00 0.00 0.00 72 1018.1
20260507023518 61 158 5.0 10.0 0.00 0.00 0.00 74 1018.1
20260507022518 61 180 5.0 9.0 0.00 0.00 0.00 72 1018.1
20260507021519 62 180 6.0 13.0 0.00 0.00 0.00 72 1017.9
20260507020519 62 180 10.0 16.0 0.00 0.00 0.00 70 1017.8
20260507015518 62 180 11.0 17.0 0.00 0.00 0.00 70 1017.8
20260507014518 62 180 9.0 16.0 0.00 0.00 0.00 69 1017.7
20260507013519 62 180 9.0 17.0 0.00 0.00 0.00 70 1017.7
20260507012518 62 180 10.0 18.0 0.00 0.00 0.00 70 1017.7
20260507011538 62 180 12.0 19.0 0.00 0.00 0.00 69 1017.7
20260507010519 63 180 10.0 15.0 0.00 0.00 0.00 69 1017.7